This is the latest recevied weather packets stored in our database for station/object N9GKE-1. If no packets are shown the sender has not sent any weather packets the latest 10 day(s).
| Time | Temp. | Humidity | Pressure | Rain* | Wind** | Luminosity | Snow |
|---|---|---|---|---|---|---|---|
| 1778008296 | 10.56° C | 77% | 1008.9 hPa | 0 mm | - | - | - |
| 1778007694 | 10.56° C | 76% | 1008.8 hPa | 0 mm | - | - | - |
| 1778007095 | 10.56° C | 77% | 1008.7 hPa | 0 mm | - | - | - |
| 1778006495 | 11.11° C | 78% | 1008.7 hPa | 0 mm | - | - | - |
| 1778005896 | 10.56° C | 78% | 1008.6 hPa | 0 mm | - | - | - |
| 1778005295 | 10.56° C | 78% | 1008.5 hPa | 0 mm | - | - | - |
| 1778004694 | 10.56° C | 81% | 1008.5 hPa | 0 mm | - | - | - |
| 1778004094 | 10.56° C | 81% | 1008.5 hPa | 0 mm | - | - | - |
| 1778003495 | 10.56° C | 81% | 1008.7 hPa | 0.25 mm | - | - | - |
| 1778002896 | 10.56° C | 82% | 1008.7 hPa | 0.25 mm | - | - | - |
| 1778002294 | 10° C | 83% | 1008.7 hPa | 0.51 mm | - | - | - |
| 1778001696 | 10° C | 82% | 1008.5 hPa | 0.76 mm | - | - | - |
| 1778001096 | 10° C | 82% | 1008.6 hPa | 1.02 mm | - | - | - |
| 1778000495 | 10° C | 81% | 1008.6 hPa | 1.02 mm | - | - | - |
| 1777999894 | 10.56° C | 82% | 1008.7 hPa | 0.76 mm | - | - | - |
| 1777999750 | 10.56° C | 83% | 1008.7 hPa | 0.76 mm | - | - | - |
| 1777999295 | 10.56° C | 82% | 1008.5 hPa | 0.76 mm | - | - | - |
| 1777999149 | 10.56° C | 81% | 1008.5 hPa | 0.76 mm | - | - | - |
| 1777998695 | 10.56° C | 80% | 1008.4 hPa | 0.51 mm | - | - | - |
| 1777998550 | 10.56° C | 80% | 1008.4 hPa | 0.51 mm | - | - | - |
| 1777998096 | 10.56° C | 78% | 1008.6 hPa | 0.25 mm | - | - | - |
| 1777997950 | 10.56° C | 75% | 1008.6 hPa | 0.25 mm | - | - | - |
| 1777997494 | 11.11° C | 73% | 1008.6 hPa | 0 mm | - | - | - |
| 1777997350 | 11.11° C | 71% | 1008.7 hPa | 0 mm | - | - | - |
| 1777996894 | 11.11° C | 69% | 1008.6 hPa | 0 mm | - | - | - |
* Rain latest hour (hover to see other rain measurements)
** Current wind speed in m/s (hover to see current wind gust speed)